GW1981 Weather Reports


time (UTC)temp
C
wind
direction
speed
KPH
gust
KPH
rain 1hr
cm
rain 24hr
cm
rain mn
cm
humidity
%
barometer
mb
20260507023336 20 5 3.2 6.4 0.00 0.00 0.00 61 1018.0
20260507022834 20 290 3.2 6.4 0.00 0.00 0.00 61 1018.0
20260507022330 20 269 1.6 11.3 0.00 0.00 0.00 61 1018.0
20260507021826 20 299 4.8 12.9 0.00 0.00 0.00 60 1018.0
20260507021321 20 270 4.8 17.7 0.00 0.00 0.00 59 1017.9
20260507020820 21 289 6.4 8.0 0.00 0.00 0.00 58 1017.6
20260507020316 21 318 0.0 11.3 0.00 0.00 0.00 57 1017.6
20260507015813 21 29 4.8 14.5 0.00 0.00 0.00 57 1017.8
20260507015311 21 269 6.4 11.3 0.00 0.00 0.00 57 1017.8
20260507014808 21 315 6.4 16.1 0.00 0.00 0.00 56 1017.8
20260507014304 21 273 8.0 17.7 0.00 0.00 0.00 57 1017.6
20260507013800 22 315 9.7 17.7 0.00 0.00 0.00 55 1017.8
20260507013258 22 320 8.0 16.1 0.00 0.00 0.00 55 1017.8
20260507012755 22 289 6.4 19.3 0.00 0.00 0.00 55 1017.5
20260507012250 22 302 4.8 12.9 0.00 0.00 0.00 54 1017.3
20260507011748 22 308 4.8 16.1 0.00 0.00 0.00 55 1017.3
20260507011244 22 282 14.5 19.3 0.00 0.00 0.00 55 1017.6
20260507010744 22 282 14.5 20.9 0.00 0.00 0.00 54 1017.4
20260507010240 22 263 8.0 17.7 0.00 0.00 0.00 55 1017.2
20260507005738 22 276 9.7 20.9 0.00 0.00 0.00 54 1017.5
20260507005234 23 274 8.0 16.1 0.00 0.00 0.00 53 1017.2
20260507004731 23 284 8.0 16.1 0.00 0.00 0.00 53 1017.5
20260507004229 22 285 9.7 20.9 0.00 0.00 0.00 54 1017.3
20260507003725 23 314 17.7 17.7 0.00 0.00 0.00 52 1017.4
20260507003220 23 259 12.9 19.3 0.00 0.00 0.00 53 1017.3
20260507002716 24 260 8.0 16.1 0.00 0.00 0.00 51 1017.1
20260507002213 24 291 4.8 14.5 0.00 0.00 0.00 51 1017.4
20260507001710 23 259 4.8 22.5 0.00 0.00 0.00 52 1017.2
20260507001207 24 284 8.0 14.5 0.00 0.00 0.00 51 1017.1
20260507000703 23 282 11.3 20.9 0.00 0.00 0.00 52 1017.1
20260507000159 24 227 6.4 11.3 0.00 0.00 0.00 50 1017.1
20260506235656 23 278 16.1 22.5 0.00 0.00 0.00 51 1017.2
20260506235151 25 287 6.4 12.9 0.00 0.00 0.00 49 1017.1
20260506234648 24 283 9.7 17.7 0.00 0.00 0.00 50 1017.0
20260506234145 24 287 6.4 16.1 0.00 0.00 0.00 49 1017.1
20260506233642 23 264 11.3 27.4 0.00 0.00 0.00 51 1017.3
20260506233139 25 270 14.5 24.1 0.00 0.00 0.00 48 1017.2
20260506232635 24 264 9.7 20.9 0.00 0.00 0.00 50 1017.1
20260506232131 24 280 4.8 16.1 0.00 0.00 0.00 50 1017.1
20260506231628 24 280 11.3 16.1 0.00 0.00 0.00 50 1017.2
20260506231127 24 253 9.7 17.7 0.00 0.00 0.00 49 1017.4
20260506230624 24 310 8.0 17.7 0.00 0.00 0.00 49 1017.2
20260506230121 24 284 11.3 12.9 0.00 0.00 0.00 49 1017.4
20260506225617 25 282 8.0 19.3 0.00 0.00 0.00 49 1017.2
20260506225113 25 269 14.5 24.1 0.00 0.00 0.00 49 1017.3
20260506224610 25 320 4.8 20.9 0.00 0.00 0.00 49 1017.4
20260506224107 24 260 16.1 20.9 0.00 0.00 0.00 49 1017.3
20260506223603 24 269 11.3 19.3 0.00 0.00 0.00 50 1017.4
20260506223059 24 293 9.7 19.3 0.00 0.00 0.00 49 1017.6
20260506222556 25 253 8.0 20.9 0.00 0.00 0.00 48 1017.4
20260506222052 25 257 6.4 19.3 0.00 0.00 0.00 48 1017.6
20260506221550 25 269 11.3 25.7 0.00 0.00 0.00 48 1017.6
20260506221048 25 240 8.0 25.7 0.00 0.00 0.00 48 1017.8
20260506220543 25 179 4.8 25.7 0.00 0.00 0.00 47 1017.8
20260506220039 25 240 8.0 22.5 0.00 0.00 0.00 47 1018.0
20260506215536 25 278 11.3 16.1 0.00 0.00 0.00 47 1017.9
20260506215032 25 304 14.5 17.7 0.00 0.00 0.00 45 1018.0
20260506214529 25 327 4.8 11.3 0.00 0.00 0.00 44 1018.2
20260506214026 26 169 4.8 9.7 0.00 0.00 0.00 44 1018.0
20260506213524 26 214 4.8 9.7 0.00 0.00 0.00 43 1018.0
20260506213021 25 212 3.2 11.3 0.00 0.00 0.00 47 1018.5
20260506212518 26 267 3.2 9.7 0.00 0.00 0.00 44 1018.2
20260506212013 25 130 9.7 11.3 0.00 0.00 0.00 44 1018.2
20260506211509 25 151 8.0 14.5 0.00 0.00 0.00 44 1018.3
20260506211007 25 85 8.0 16.1 0.00 0.00 0.00 43 1018.4
20260506210503 25 317 3.2 6.4 0.00 0.00 0.00 43 1018.3
20260506210000 25 176 9.7 16.1 0.00 0.00 0.00 43 1018.6
20260506205456 24 358 1.6 8.0 0.00 0.00 0.00 43 1018.4
20260506204952 25 122 3.2 11.3 0.00 0.00 0.00 44 1018.5
20260506204450 24 198 4.8 14.5 0.00 0.00 0.00 46 1018.5
20260506203947 23 211 3.2 16.1 0.00 0.00 0.00 46 1018.6
20260506203444 23 276 6.4 9.7 0.00 0.00 0.00 46 1018.7
20260506202941 23 39 4.8 8.0 0.00 0.00 0.00 45 1018.7
20260506202438 23 236 11.3 14.5 0.00 0.00 0.00 46 1018.8
20260506201934 23 160 4.8 12.9 0.00 0.00 0.00 46 1018.9
20260506201432 23 245 11.3 17.7 0.00 0.00 0.00 47 1018.9
20260506200929 23 344 6.4 12.9 0.00 0.00 0.00 45 1018.8
20260506200425 22 287 6.4 9.7 0.00 0.00 0.00 48 1018.9
20260506195921 22 77 3.2 8.0 0.00 0.00 0.00 47 1019.1
20260506195419 22 124 3.2 16.1 0.00 0.00 0.00 47 1019.2
20260506194915 22 83 4.8 11.3 0.00 0.00 0.00 48 1019.3
20260506194412 22 235 1.6 14.5 0.00 0.00 0.00 48 1019.1
20260506193909 22 181 0.0 8.0 0.00 0.00 0.00 48 1019.1
20260506193406 22 274 8.0 11.3 0.00 0.00 0.00 47 1019.2
20260506192902 22 358 3.2 8.0 0.00 0.00 0.00 48 1019.4
20260506192359 22 254 3.2 8.0 0.00 0.00 0.00 50 1019.3
20260506191856 22 172 8.0 9.7 0.00 0.00 0.00 50 1019.4
20260506191352 21 86 3.2 11.3 0.00 0.00 0.00 50 1019.7
20260506190850 21 329 6.4 11.3 0.00 0.00 0.00 53 1019.8
20260506190346 21 196 0.0 14.5 0.00 0.00 0.00 51 1019.8
20260506185843 22 144 4.8 11.3 0.00 0.00 0.00 50 1019.5
20260506185340 21 71 3.2 11.3 0.00 0.00 0.00 50 1019.7
20260506184837 21 158 3.2 8.0 0.00 0.00 0.00 51 1019.6
20260506184334 21 154 9.7 11.3 0.00 0.00 0.00 51 1020.0
20260506183832 20 207 4.8 9.7 0.00 0.00 0.00 52 1019.9
20260506183326 20 147 4.8 9.7 0.00 0.00 0.00 52 1019.7
20260506182824 20 241 3.2 9.7 0.00 0.00 0.00 54 1019.9
20260506182321 20 120 4.8 9.7 0.00 0.00 0.00 54 1019.8
20260506181819 19 184 3.2 11.3 0.00 0.00 0.00 55 1020.0
20260506181317 19 273 8.0 12.9 0.00 0.00 0.00 54 1020.2
20260506180814 20 224 4.8 11.3 0.00 0.00 0.00 54 1019.8
20260506180310 19 94 8.0 9.7 0.00 0.00 0.00 55 1020.1
20260506175806 20 23 1.6 9.7 0.00 0.00 0.00 55 1020.1
20260506175306 20 211 8.0 9.7 0.00 0.00 0.00 55 1020.1
20260506174800 19 313 3.2 8.0 0.00 0.00 0.00 56 1019.8
20260506174257 19 103 3.2 6.4 0.00 0.00 0.00 57 1020.2
20260506173755 18 33 9.7 11.3 0.00 0.00 0.00 58 1020.0
20260506173252 18 122 4.8 6.4 0.00 0.00 0.00 59 1020.0
20260506172748 18 48 6.4 8.0 0.00 0.00 0.00 58 1020.3
20260506172245 18 254 0.0 8.0 0.00 0.00 0.00 60 1020.1
20260506171743 18 186 4.8 8.0 0.00 0.00 0.00 60 1020.1
20260506171240 18 248 6.4 8.0 0.00 0.00 0.00 59 1020.4
20260506170738 18 172 0.0 8.0 0.00 0.00 0.00 61 1020.1
20260506170233 17 273 4.8 11.3 0.00 0.00 0.00 61 1020.0
20260506165732 17 266 9.7 9.7 0.00 0.00 0.00 62 1020.2
20260506165229 17 244 4.8 14.5 0.00 0.00 0.00 64 1020.2
20260506164726 17 137 1.6 6.4 0.00 0.00 0.00 66 1020.0
20260506164223 17 251 3.2 8.0 0.00 0.00 0.00 65 1020.3
20260506163720 17 93 6.4 8.0 0.00 0.00 0.00 64 1020.4
20260506163214 17 152 0.0 8.0 0.00 0.00 0.00 65 1020.1
20260506162711 16 88 4.8 6.4 0.00 0.00 0.00 68 1020.3
20260506162208 16 242 3.2 6.4 0.00 0.00 0.00 69 1020.2
20260506161706 16 254 4.8 6.4 0.00 0.00 0.00 70 1020.2
20260506161203 15 317 3.2 4.8 0.00 0.00 0.00 71 1020.1
20260506160700 15 283 3.2 8.0 0.00 0.00 0.00 72 1020.3
20260506160156 16 253 3.2 6.4 0.00 0.00 0.00 71 1020.3
20260506155655 15 309 3.2 9.7 0.00 0.00 0.00 74 1020.2
20260506155152 15 180 3.2 8.0 0.00 0.00 0.00 74 1020.2
20260506153254 15 222 4.8 8.0 0.00 0.00 0.00 74 1020.5
20260506152750 14 177 4.8 6.4 0.00 0.00 0.00 75 1020.6
20260506152248 14 36 4.8 4.8 0.00 0.00 0.00 76 1020.3
20260506151747 14 219 4.8 8.0 0.00 0.00 0.00 75 1020.4
20260506151243 15 79 4.8 8.0 0.00 0.00 0.00 74 1020.3
20260506150740 15 134 4.8 8.0 0.00 0.00 0.00 74 1020.3
20260506150237 15 104 0.0 8.0 0.00 0.00 0.00 74 1020.2
20260506145734 14 35 0.0 4.8 0.00 0.00 0.00 76 1020.1
20260506145230 15 81 1.6 6.4 0.00 0.00 0.00 74 1020.4
20260506144727 14 33 3.2 4.8 0.00 0.00 0.00 76 1020.4
20260506144225 13 84 4.8 8.0 0.00 0.00 0.00 77 1020.4
20260506143722 13 152 0.0 4.8 0.00 0.00 0.00 77 1020.4
20260506143219 13 93 0.0 4.8 0.00 0.00 0.00 78 1020.4
20260506142718 13 116 3.2 4.8 0.00 0.00 0.00 78 1020.3
20260506142216 13 73 1.6 6.4 0.00 0.00 0.00 79 1020.4
20260506141713 13 67 4.8 8.0 0.00 0.00 0.00 79 1020.1
20260506141211 13 77 4.8 6.4 0.00 0.00 0.00 79 1020.3
20260506140709 13 56 0.0 4.8 0.00 0.00 0.00 83 1020.2
20260506140206 12 41 1.6 4.8 0.00 0.00 0.00 89 1020.2
20260506135703 11 22 3.2 6.4 0.00 0.00 0.00 89 1020.0
20260506135159 10 354 0.0 4.8 0.00 0.00 0.00 92 1020.0
20260506134656 10 36 3.2 8.0 0.00 0.00 0.00 93 1020.2
20260506134152 10 16 4.8 6.4 0.00 0.00 0.00 94 1020.0
20260506133649 10 89 3.2 6.4 0.00 0.00 0.00 95 1020.0
20260506133145 8 26 3.2 6.4 0.00 0.00 0.00 95 1020.1
20260506132643 8 49 3.2 4.8 0.00 0.00 0.00 95 1019.8
20260506132139 8 74 3.2 6.4 0.00 0.00 0.00 95 1019.8
20260506131637 8 36 1.6 4.8 0.00 0.00 0.00 95 1020.1
20260506131133 8 44 4.8 6.4 0.00 0.00 0.00 94 1019.8
20260506130630 8 32 1.6 6.4 0.00 0.00 0.00 94 1019.8
20260506130128 8 28 4.8 6.4 0.00 0.00 0.00 94 1019.8
20260506125626 8 17 3.2 8.0 0.00 0.00 0.00 94 1019.5
20260506125123 8 38 1.6 4.8 0.00 0.00 0.00 94 1019.6
20260506124621 8 58 4.8 4.8 0.00 0.00 0.00 94 1019.5
20260506124118 8 64 0.0 3.2 0.00 0.00 0.00 94 1019.5
20260506123616 8 27 4.8 6.4 0.00 0.00 0.00 94 1019.5
20260506123115 8 11 3.2 6.4 0.00 0.00 0.00 93 1019.4
20260506122611 8 35 3.2 4.8 0.00 0.00 0.00 93 1019.6
20260506122109 8 83 1.6 6.4 0.00 0.00 0.00 93 1019.3
20260506121606 8 46 3.2 6.4 0.00 0.00 0.00 93 1019.3
20260506121102 8 38 4.8 6.4 0.00 0.00 0.00 93 1019.5
20260506120600 8 100 1.6 6.4 0.00 0.00 0.00 93 1019.3
20260506120057 9 23 3.2 8.0 0.00 0.00 0.00 93 1019.3
20260506115555 8 6 4.8 6.4 0.00 0.00 0.00 93 1019.2
20260506115053 8 27 4.8 4.8 0.00 0.00 0.00 92 1019.2
20260506114550 8 13 3.2 4.8 0.00 0.00 0.00 92 1019.4
20260506114049 9 55 3.2 4.8 0.00 0.00 0.00 92 1019.1
20260506113546 9 37 4.8 6.4 0.00 0.00 0.00 92 1019.3
20260506113044 9 33 0.0 4.8 0.00 0.00 0.00 92 1019.2
20260506112540 9 30 4.8 6.4 0.00 0.00 0.00 92 1019.2
20260506112037 9 39 4.8 4.8 0.00 0.00 0.00 93 1019.1
20260506111535 9 35 3.2 4.8 0.00 0.00 0.00 93 1019.0
20260506111032 9 43 3.2 6.4 0.00 0.00 0.00 93 1019.2
20260506110530 9 17 4.8 6.4 0.00 0.00 0.00 93 1019.1
20260506110027 10 15 4.8 6.4 0.00 0.00 0.00 93 1019.2
20260506105523 9 25 3.2 6.4 0.00 0.00 0.00 93 1019.1
20260506105020 9 35 3.2 4.8 0.00 0.00 0.00 93 1019.3
20260506104518 9 19 3.2 4.8 0.00 0.00 0.00 93 1019.1
20260506104016 9 40 0.0 4.8 0.00 0.00 0.00 92 1019.3
20260506103513 10 26 4.8 8.0 0.00 0.00 0.00 92 1019.3
20260506103010 10 37 4.8 6.4 0.00 0.00 0.00 92 1019.3
20260506102508 10 7 3.2 8.0 0.00 0.00 0.00 93 1019.0
20260506102005 9 61 4.8 4.8 0.00 0.00 0.00 92 1019.1
20260506101501 10 39 3.2 6.4 0.00 0.00 0.00 92 1019.2
20260506100959 10 32 3.2 4.8 0.00 0.00 0.00 92 1019.3
20260506100457 10 25 3.2 4.8 0.00 0.00 0.00 92 1019.3
20260506095955 10 21 4.8 4.8 0.00 0.00 0.00 92 1019.3
20260506095453 10 15 3.2 4.8 0.00 0.00 0.00 92 1019.5
20260506094949 10 6 4.8 6.4 0.00 0.00 0.00 92 1019.2
20260506094447 10 33 3.2 4.8 0.00 0.00 0.00 92 1019.4
20260506093944 10 41 3.2 4.8 0.00 0.00 0.00 92 1019.4
20260506093443 10 32 4.8 6.4 0.00 0.00 0.00 91 1019.4
20260506092940 10 24 3.2 4.8 0.00 0.00 0.00 91 1019.4
20260506092438 10 34 4.8 4.8 0.00 0.00 0.00 91 1019.5
20260506091934 10 35 4.8 4.8 0.00 0.00 0.00 91 1019.4
20260506091433 10 22 3.2 4.8 0.00 0.00 0.00 91 1019.7
20260506090930 10 14 4.8 6.4 0.00 0.00 0.00 91 1019.5
20260506090427 10 35 4.8 6.4 0.00 0.00 0.00 90 1019.4
20260506085923 10 37 3.2 4.8 0.00 0.00 0.00 90 1019.6
20260506085420 10 35 4.8 4.8 0.00 0.00 0.00 90 1019.7
20260506084916 10 41 4.8 6.4 0.00 0.00 0.00 90 1019.4
20260506084414 10 33 4.8 6.4 0.00 0.00 0.00 90 1019.6
20260506083910 10 46 3.2 6.4 0.00 0.00 0.00 90 1019.7
20260506083408 10 54 1.6 6.4 0.00 0.00 0.00 89 1019.6
20260506082905 10 56 3.2 6.4 0.00 0.00 0.00 89 1019.7
20260506082401 10 35 3.2 6.4 0.00 0.00 0.00 88 1019.9
20260506081857 10 45 4.8 4.8 0.00 0.00 0.00 88 1020.0
20260506081355 10 36 3.2 6.4 0.00 0.00 0.00 88 1019.7
20260506080853 10 36 6.4 6.4 0.00 0.00 0.00 87 1019.7
20260506080349 10 69 3.2 4.8 0.00 0.00 0.00 87 1019.7
20260506073333 10 38 4.8 8.0 0.00 0.00 0.00 88 1019.7
20260506072830 10 31 3.2 6.4 0.00 0.00 0.00 88 1019.8
20260506072328 10 42 3.2 6.4 0.00 0.00 0.00 88 1020.0
20260506071825 10 38 4.8 6.4 0.00 0.00 0.00 87 1020.0
20260506071323 10 46 3.2 4.8 0.00 0.00 0.00 87 1019.5
20260506070820 10 35 4.8 6.4 0.00 0.00 0.00 87 1019.5
20260506070317 10 39 4.8 6.4 0.00 0.00 0.00 86 1019.6
20260506062254 11 39 3.2 6.4 0.00 0.00 0.00 82 1019.0
20260506061750 11 43 3.2 4.8 0.00 0.00 0.00 81 1019.1
20260506061247 11 5 0.0 3.2 0.00 0.00 0.00 81 1019.0
20260506060745 11 358 1.6 4.8 0.00 0.00 0.00 81 1018.9
20260506060243 12 35 4.8 6.4 0.00 0.00 0.00 79 1019.0
20260506051215 12 39 4.8 6.4 0.00 0.00 0.00 76 1018.6
20260506050713 12 27 4.8 8.0 0.00 0.00 0.00 76 1018.4
20260506050209 12 67 4.8 6.4 0.00 0.00 0.00 77 1018.4
20260506044701 12 30 4.8 8.0 0.00 0.00 0.00 78 1018.4
20260506044157 12 22 4.8 4.8 0.00 0.00 0.00 77 1018.1
20260506043654 12 28 3.2 6.4 0.00 0.00 0.00 77 1018.2
20260506043152 12 15 3.2 6.4 0.00 0.00 0.00 78 1017.8
20260506042652 12 22 4.8 6.4 0.00 0.00 0.00 79 1018.2
20260506042149 12 33 4.8 4.8 0.00 0.00 0.00 78 1018.1
20260506041652 12 37 3.2 4.8 0.00 0.00 0.00 77 1017.9
20260506041143 12 36 0.0 4.8 0.00 0.00 0.00 77 1017.9
20260506040641 12 40 1.6 4.8 0.00 0.00 0.00 76 1017.8
20260506040138 12 28 3.2 6.4 0.00 0.00 0.00 76 1017.9
20260506035635 12 40 3.2 4.8 0.00 0.00 0.00 76 1017.6
20260506035131 12 14 3.2 4.8 0.00 0.00 0.00 75 1017.6
20260506034629 13 43 3.2 4.8 0.00 0.00 0.00 74 1017.4
20260506034125 13 53 3.2 4.8 0.00 0.00 0.00 73 1017.4
20260506033623 13 21 3.2 4.8 0.00 0.00 0.00 73 1017.4
20260506033120 13 44 3.2 6.4 0.00 0.00 0.00 73 1017.4
20260506032617 13 55 1.6 6.4 0.00 0.00 0.00 74 1017.2
20260506032114 13 65 4.8 4.8 0.00 0.00 0.00 75 1017.3
20260506031611 13 52 0.0 4.8 0.00 0.00 0.00 75 1017.0
20260506031108 14 23 3.2 4.8 0.00 0.00 0.00 74 1016.9
20260506030607 14 13 3.2 4.8 0.00 0.00 0.00 74 1016.9
20260506030103 14 36 0.0 4.8 0.00 0.00 0.00 74 1016.8
20260506025600 15 36 3.2 6.4 0.00 0.00 0.00 73 1016.6
20260506025056 15 352 3.2 6.4 0.00 0.00 0.00 72 1016.7
20260506024554 15 70 3.2 4.8 0.00 0.00 0.00 71 1016.5
20260506024050 15 25 3.2 4.8 0.00 0.00 0.00 69 1016.5